Location: Laporte
(40.6264°N, 105.1378°W)
Time: 14:52:06
(UTC+00:00)

Envisat - Pass Details

Date: 17 August 2022
Orbit: 764 x 765 km, 98.2° (Epoch: 26 September)

Event Time Altitude Azimuth Distance (km) Brightness Sun altitude
Rises 11:33:30 0° 11° (NNE) 3,240 6.8 -7.8°
Reaches altitude 10° 11:35:49 10° 11° (N) 2,309 6.0 -7.4°
Maximum altitude 11:40:55 82° 284° (WNW) 776 3.0 -6.5°
Drops below altitude 10° 11:45:58 10° 198° (SSW) 2,292 5.1 -5.7°
Sets 11:48:15 0° 197° (SSW) 3,213 5.8 -5.3°
